Regional Weather Roundup
Issued by NWS

Home | Current Version | Previous Version | Text Only | Print | Product List | Glossary On
Versions: 1 2 3 4 5 6 7 8 9 10 11 12 13 14 15 16 17 18 19 20 21 22 23 24 25 26 27 28 29 30 31 32 33 34 35 36 37 38 39 40 41 42 43 44 45 46 47 48 49 50
000
ASUS42 KTBW 291716
RWRFL
FLORIDA REGIONAL WEATHER ROUNDUP
NATIONAL WEATHER SERVICE TAMPA BAY RUSKIN FL
100 PM EDT WED MAR 29 2017

NOTE: "FAIR" INDICATES FEW OR NO CLOUDS BELOW 12,000 FEET WITH NO
SIGNIFICANT WEATHER AND/OR OBSTRUCTIONS TO VISIBILITY.

FLZ001>010-012>015-112-114-115-291800-
PANHANDLE FLORIDA

CITY           SKY/WX    TMP DP  RH WIND       PRES   REMARKS
PENSACOLA      MOSUNNY   79  67  66 SE13      30.04R
PENSACOLA NAS  PTSUNNY   77  67  71 SE13      30.04R
MILTON NAS     MOSUNNY   79  60  52 S17       30.03
CRESTVIEW      MOSUNNY   80  58  46 S14G20    30.05S
DUKE FIELD     MOSUNNY   79  58  48 S13       30.03R
VALPARAISO     PTSUNNY   76  64  68 S8        30.05R
MARY ESTHER    MOSUNNY   75  62  64 SE10      30.04R
PANAMA CITY    FAIR      78  57  48 SE12      30.04S
TYNDALL AFB    MOSUNNY   79  58  48 S12       30.04F
APALACHICOLA   SUNNY     77  67  71 S9        30.06F

STATION/POSITION SKY/WX   TEMP    WIND        PRES    WAVE   SWELL
                          AIR SEA DIR/SP/G            HT/PER HT/PER
                          (F)     (DEG/KT/KT) (MB)    (FT/S) (FT/S)
30.1N   87.6W              72 72  150/ 10/ 12 1016.7R   3/ 5   2/ 5
29.2N   88.2W              74 73  150/ 14/ 17 1016.9R   4/ 6
28.8N   86.0W              73 73              1017.6F   2/ 3
PANAMA CITY BEAC           70 73  140/  8/  9 1017.9S
TOWER C                    70     110/  8/  9 1018.5F
28.5N   84.5W              71 71  110/ 10/ 12 1017.7R   1/ 2

$$
FLZ011-016>038-118-127-128-134-139-239-291800-
NORTH FLORIDA

CITY           SKY/WX    TMP DP  RH WIND       PRES   REMARKS
MARIANNA       CLOUDY    79  64  60 MISG      30.03F
TALLAHASSEE    MOSUNNY   79  61  53 S8        30.04F
PERRY          SUNNY     83  60  46 CALM      30.05F
CROSS CITY     SUNNY     81  63  54 NW5       30.06S
LAKE CITY      FAIR      81  61  50 W5        30.05S
GAINESVILLE    SUNNY     81  59  47 SW6       30.05F
WILLISTON      SUNNY     86  59  39 CALM      30.05F
PALATKA        FAIR      82  57  42 SE6       30.04F
MAYPORT NAS    CLOUDY    79  63  57 E7        30.04F
JACKSONVILLE   CLOUDY    84  59  42 W5        30.02F
JAX NAS        CLOUDY    80  63  55 SE7       30.04F
FERNANDINA BEA FAIR      82  64  54 SE7       30.03S
ST AUGUSTINE   PTSUNNY   80  64  58 E8        30.04F
PALM COAST     SUNNY     82  57  42 W6        30.04F

STATION/POSITION SKY/WX   TEMP    WIND        PRES    WAVE   SWELL
                          AIR SEA DIR/SP/G            HT/PER HT/PER
                          (F)     (DEG/KT/KT) (MB)    (FT/S) (FT/S)
SHELL POINT      NOT AVBL
KEATON BEACH               69     220/  8/  9 1018.0F
CEDAR KEY                  72     140/  2/  3 1018.6R
FERNANDINA                 78 69  320/  2/  3 1017.7F
30.7N   81.3W                 69                N/A     3/12   2/12
MAYPORT                    75 65   70/  6/  7 1017.5F
31.4N   80.9W              68 66  280/  2/  2 1017.1    3/11   2/11
ST AUGUSTINE               73 68   80/  6/  6 1018.1F

$$
FLZ040-043>046-052-053-057-058-063-144-291800-
INTERIOR CENTRAL FLORIDA

CITY           SKY/WX    TMP DP  RH WIND       PRES   REMARKS
OCALA          SUNNY     82  57  42 SW6       30.05F
THE VILLAGES     N/A     84  57  39 MISG      29.95F
LEESBURG       SUNNY     83  53  35 CALM      30.06F
SANFORD        SUNNY     87  54  32 CALM      30.04F
ORLANDO EXEC   SUNNY     85  61  44 CALM      30.04F
ORLANDO INTL   MOSUNNY   84  59  42 VRB3      30.04F
KISSIMMEE      MOSUNNY   84  60  44 VRB7      30.06F
WINTER HAVEN   SUNNY     83  55  38 S5        30.06F
LAKELAND       MOSUNNY   82  61  47 CALM      30.05F
BARTOW         SUNNY     84  55  37 E5        30.05F
OKEECHOBEE     SUNNY    N/A N/A N/A SE7       30.06F

$$
FLZ041-047-054-059-064-141-147-291800-
EAST CENTRAL FLORIDA

CITY           SKY/WX    TMP DP  RH WIND       PRES   REMARKS
ORMOND BEACH   SUNNY     82  59  44 SW5       30.04F
DAYTONA BEACH  MOSUNNY   83  56  39 VRB5      30.04F
DELAND         SUNNY     84  57  39 SW3       30.04F
NEW SMYRNA BEA MOSUNNY   82  63  51 E7        30.05F
JFK SPACE CTR  SUNNY     83  62  48 CALM      30.03F
TITUSVILLE     MOSUNNY   82  59  44 E9        30.05F
CAPE CANAVERAL SUNNY     87  61  41 SE9       30.04F
PATRICK AFB    SUNNY     78  67  69 E9        30.04F
MELBOURNE      MOSUNNY   84  64  50 E12       30.04F
VERO BEACH     SUNNY     84  65  52 E10       30.05F
FT PIERCE      MOSUNNY   84  67  56 NE8       30.05F
STUART         MOSUNNY   86  63  45 E9        30.07F

STATION/POSITION SKY/WX   TEMP    WIND        PRES    WAVE   SWELL
                          AIR SEA DIR/SP/G            HT/PER HT/PER
                          (F)     (DEG/KT/KT) (MB)    (FT/S) (FT/S)
TRIDENT PIER               79 74  120/  6/  9 1018.8F
28.4N   80.5W                 75                N/A     2/11   2/11
27.5N   80.2W                 76                N/A     4/11   2/11

$$
FLZ050-056-061-142-242-148-248-149-249-151-251-155-255-
160-260-291800-
WEST CENTRAL FLORIDA

CITY           SKY/WX    TMP DP  RH WIND       PRES   REMARKS
CRYSTAL RIVER  FAIR      86  55  35 SW6       30.05S
INVERNESS      FAIR      82  59  44 SE3       30.05F
BROOKSVILLE    MOSUNNY   84  61  45 VRB3      30.05F
CLEARWATER AIR FAIR      82  63  51 E7        30.04F
ST PETE CLEARW SUNNY     84  59  42 E7        30.04F
TAMPA INTL     PTSUNNY   81  65  58 SW8       30.05F
TAMPA EXEC     MOSUNNY   86  59  39 CALM      30.04F
PLANT CITY     MOSUNNY   86  61  42 CALM      30.06F
MACDILL AFB    MOSUNNY   86  64  46 S7        30.04F
PETER O KNIGHT SUNNY     86  64  48 SW3       30.04F
ST PETERSBURG  SUNNY     78  67  68 E3        30.03F
SARASOTA       MOSUNNY   80  64  58 SW13      30.03F
VENICE         FAIR      77  68  73 S13       30.05F

STATION/POSITION SKY/WX   TEMP    WIND        PRES    WAVE   SWELL
                          AIR SEA DIR/SP/G            HT/PER HT/PER
                          (F)     (DEG/KT/KT) (MB)    (FT/S) (FT/S)
27.3N   84.2W                 73                N/A     1/ 3
CLEARWATER BEACH           74 72  240/  7/  8 1017.7F
MIDDLE TAMPA BAY           74     350/  5/  6 1017.6F
VENICE                     73 72  190/ 12/ 13 1017.1F

$$
FLZ066-069-070-075>078-162-262-165-265-291800-
SOUTHWEST FLORIDA AND KEYS

CITY           SKY/WX    TMP DP  RH WIND       PRES   REMARKS
PUNTA GORDA    PTSUNNY   86  62  44 SW9       30.05F
FT MYERS       SUNNY     85  62  46 VRB6      30.03F
SOUTHWEST INTL MOSUNNY   85  57  38 SW9       30.04F
NAPLES         PTSUNNY   81  66  60 SW14      30.04F
IMMOKALEE        N/A     86  59  39 VRB7G14   30.03F
MARATHON       SUNNY     84  68  58 SE7       30.05F
KEY WEST NAS   MOSUNNY   82  66  58 SE12      30.05F
KEY WEST INTL  SUNNY     81  66  60 SE10      30.05F

STATION/POSITION SKY/WX   TEMP    WIND        PRES    WAVE   SWELL
                          AIR SEA DIR/SP/G            HT/PER HT/PER
                          (F)     (DEG/KT/KT) (MB)    (FT/S) (FT/S)
NAPLES                        74              1017.5F
DRY TORTUGAS               77     140/ 11/ 12 1017.3F
SAND KEY                   77     150/ 11/ 13 1018.1F
LONG KEY                   78 78  150/  3/  3 1018.5R
MOLASSES REEF              77 79  160/  4/  5 1018.2F

$$
FLZ067-068-071>074-168-172>174-291800-
SOUTHEAST FLORIDA

CITY           SKY/WX    TMP DP  RH WIND       PRES   REMARKS
W PALM BEACH   MOSUNNY   82  63  52 E10       30.06F
BOCA RATON     MOSUNNY   82  63  51 SE7       30.07S
FT LAUDER-EXEC MOSUNNY   85  58  39 E9        30.06S
FT LAUDERDALE  MOSUNNY   83  60  45 SE10      30.05F
POMPANO BEACH  SUNNY     81  63  54 E12       30.06F
PEMBROKE PINES SUNNY     84  58  40 VRB3      30.07F
OPA LOCKA      MOSUNNY   84  58  40 E7        30.06F
MIAMI          MOSUNNY   84  61  46 CALM      30.05F
WEST KENDALL   SUNNY     83  60  45 E6        30.05F
HOMESTEAD      SUNNY     82  64  53 E8        30.05F

STATION/POSITION SKY/WX   TEMP    WIND        PRES    WAVE   SWELL
                          AIR SEA DIR/SP/G            HT/PER HT/PER
                          (F)     (DEG/KT/KT) (MB)    (FT/S) (FT/S)
PORT EVERGLADES            80     110/  3/  5 1018.3F
LAKE WORTH                        130/  8/  9   N/A
FOWEY ROCKS                77 77  150/  5/  6 1018.7F
SETTLEMENT POINT           76     270/  6/  8 1018.7S

$$




USA.gov is the U.S. government's official web portal to all federal, state and local government web resources and services.